N1LTP Weather Reports


time (UTC)temp
C
wind
direction
speed
KPH
gust
KPH
rain 1hr
cm
rain 24hr
cm
rain mn
cm
humidity
%
barometer
mb
20260504081509 5 315 0.0 0.0 0.00 0.00 0.00 81 1010.6
20260504044546 2 315 0.0 0.0 0.00 0.00 0.00 83 1010.6
20260504043047 2 315 0.0 1.6 0.00 0.00 0.00 83 1010.5
20260504041543 2 315 0.0 0.0 0.00 0.00 0.00 82 1010.4
20260504040041 2 315 0.0 0.0 0.00 0.00 0.00 82 1010.2
20260504034539 2 315 0.0 0.0 0.00 0.00 0.00 81 1010.2
20260504033037 2 315 0.0 0.0 0.00 0.00 0.00 82 1010.0
20260504031550 2 315 0.0 0.0 0.00 0.00 0.00 79 1010.0
20260504030035 3 315 0.0 0.0 0.00 0.00 0.00 78 1009.9
20260504024532 3 315 0.0 0.0 0.00 0.00 0.00 75 1009.9
20260504023030 3 315 0.0 0.0 0.00 0.00 0.00 74 1009.8
20260504021528 4 315 0.0 0.0 0.00 0.00 0.00 73 1009.8
20260504020025 5 315 0.0 0.0 0.00 0.00 0.00 70 1009.8
20260504014525 5 315 0.0 0.0 0.00 0.00 0.00 67 1009.7
20260504013016 6 315 0.0 0.0 0.00 0.00 0.00 66 1009.5
20260504011515 6 315 0.0 0.0 0.00 0.00 0.00 64 1009.3
20260504010015 7 315 0.0 0.0 0.00 0.00 0.00 60 1009.1
20260504004519 8 315 0.0 0.0 0.00 0.00 0.00 55 1008.9
20260504003013 8 315 0.0 0.0 0.00 0.00 0.00 52 1008.8
20260504001513 9 315 0.0 4.8 0.00 0.00 0.00 48 1008.5
20260504000012 10 330 1.6 8.0 0.00 0.00 0.00 46 1008.4
20260503234512 10 341 4.8 14.5 0.00 0.00 0.00 43 1008.2
20260503233016 10 338 6.4 17.7 0.00 0.00 0.00 43 1008.1
20260503231511 10 342 4.8 12.9 0.00 0.00 0.00 43 1007.9
20260503230011 11 281 1.6 14.5 0.00 0.00 0.00 45 1007.6
20260503224509 11 308 4.8 24.1 0.00 0.00 0.00 43 1007.5
20260503223009 11 328 8.0 22.5 0.00 0.00 0.00 42 1007.2
20260503221512 11 280 8.0 20.9 0.00 0.00 0.00 43 1007.0
20260503220007 11 290 12.9 29.0 0.00 0.00 0.00 42 1006.9
20260503214508 11 312 8.0 27.4 0.00 0.00 0.00 44 1006.7
20260503213006 11 252 11.3 24.1 0.00 0.00 0.00 43 1006.3
20260503211505 11 312 6.4 25.7 0.00 0.00 0.00 42 1006.2
20260503210005 11 308 3.2 22.5 0.00 0.00 0.00 45 1005.9
20260503204505 11 278 9.7 25.7 0.00 0.00 0.00 43 1005.7
20260503203003 11 281 9.7 19.3 0.00 0.00 0.00 45 1005.5
20260503201502 11 333 4.8 24.1 0.00 0.00 0.00 45 1005.5
20260503200059 11 327 6.4 27.4 0.00 0.00 0.00 45 1005.5
20260503194601 11 322 11.3 22.5 0.00 0.00 0.00 44 1005.5
20260503193057 11 325 1.6 17.7 0.00 0.00 0.00 49 1005.4
20260503191556 11 304 6.4 22.5 0.00 0.00 0.00 49 1005.6
20260503190055 11 306 3.2 12.9 0.00 0.00 0.00 51 1005.6
20260503184557 11 292 1.6 8.0 0.00 0.00 0.00 52 1005.5
20260503183052 11 315 1.6 16.1 0.00 0.00 0.00 53 1005.6
20260503181551 10 250 9.7 20.9 0.00 0.00 0.00 51 1005.6
20260503180059 11 316 8.0 20.9 0.00 0.00 0.00 52 1005.6
20260503174551 11 309 6.4 17.7 0.00 0.00 0.00 51 1005.5
20260503173046 10 294 3.2 17.7 0.00 0.00 0.00 58 1005.5
20260503171547 9 298 4.8 17.7 0.00 0.00 0.00 61 1005.7